Lid_Strength_Index
1 1 1 1 0 0 0 1 2 2 3 2 1 0 0 1 1 0 -1 1 -1 -2 -2 -2 -2 -1 -1 0 1 2 2 2 3 3 3 3 4 5 5 6 6 6 6
1 1 1 1 0 0 0 1 2 3 3 2 2 2 1 1 1 1 0 0 -0 -1 -2 -2 -1 -1 -0 0 1 1 2 2 3 3 3 4 5 5 7 7 7 7 7
2 1 1 2 1 0 0 1 2 3 4 3 3 4 3 3 1 1 0 0 -0 -0 -1 -2 -1 -1 -0 0 0 1 2 2 3 3 4 5 6 6 7 7 7 7 8
1 1 2 2 1 0 0 1 2 4 5 5 5 5 5 5 5 4 3 2 0 0 -0 -1 -1 -1 -0 -0 0 1 1 2 3 5 5 6 6 7 7 8 8 8 8
1 1 1 1 1 1 2 1 3 3 5 6 7 8 8 8 7 6 6 5 5 2 1 0 0 0 0 0 1 1 2 3 5 5 6 7 7 8 8 8 9 8 8
3 0 0 1 1 1 2 2 4 4 5 7 10 13 13 12 11 10 9 8 8 7 5 1 2 2 1 1 1 2 2 4 5 6 6 7 8 8 9 9 9 9 8
6 7 2 1 1 1 2 2 4 6 7 9 12 13 13 13 13 13 12 11 11 11 10 8 6 3 3 2 2 3 3 4 5 6 7 8 8 9 10 10 9 9 9
6 6 7 3 1 1 2 3 5 7 9 9 8 12 14 12 14 14 13 13 13 12 12 11 10 9 6 5 5 3 4 4 6 6 8 8 9 10 10 10 10 9 9
3 5 5 5 1 1 2 4 6 7 10 10 8 10 14 13 16 15 15 14 14 14 13 12 12 12 11 8 5 5 5 6 6 7 8 9 10 10 11 11 10 10 9
6 6 7 6 3 1 3 5 6 6 8 10 10 10 11 14 14 18 16 16 15 15 14 13 13 13 12 11 10 9 8 8 8 9 10 11 11 11 11 11 10 10 9
6 5 5 6 6 3 2 5 6 6 8 8 9 11 14 14 15 17 20 19 17 16 16 15 15 14 13 13 12 10 10 10 11 11 12 12 12 12 12 11 11 10 9
8 7 5 4 6 6 2 4 6 6 7 7 8 9 11 12 13 15 16 18 17 18 17 16 16 15 15 14 13 12 11 11 12 13 13 13 14 13 13 12 11 11 10
8 7 6 4 5 5 4 4 6 6 7 7 8 8 10 9 10 11 14 16 18 19 18 17 17 16 15 15 14 14 12 12 12 14 14 14 14 14 14 13 12 11 11
9 7 6 5 4 4 4 3 5 6 7 7 8 8 9 9 10 10 13 16 18 20 18 18 17 17 16 16 15 14 14 13 13 14 14 15 15 15 14 13 13 12 11
8 7 6 5 3 4 3 4 5 6 7 7 8 8 9 10 10 10 12 12 13 18 20 18 19 16 16 16 15 16 16 14 14 15 15 15 15 15 14 13 13 12 11
8 7 6 5 5 2 3 4 5 6 7 7 8 8 9 10 10 11 12 11 12 12 16 18 18 17 16 16 15 17 17 15 15 15 15 15 16 15 14 14 13 12 11
8 8 7 6 5 2 4 5 7 7 9 10 12 10 11 12 12 13 12 14 14 14 17 18 17 17 17 17 16 17 17 17 18 16 16 16 16 15 14 14 13 12 11
9 9 9 8 6 8 7 8 12 13 14 14 15 15 15 15 15 15 14 15 15 16 16 19 18 18 17 17 18 19 18 19 19 18 17 16 15 14 14 14 13 12 12
11 12 11 10 10 12 11 13 15 15 15 15 15 15 16 15 16 15 15 15 15 15 16 18 19 18 19 18 19 19 20 20 20 18 16 15 15 14 14 14 13 13 13
12 12 12 12 11 12 15 15 15 15 15 16 15 15 15 15 16 16 16 16 16 17 17 19 20 20 20 20 20 22 22 21 21 19 18 17 16 15 14 14 14 15 15
12 12 12 12 11 13 15 16 16 16 16 17 16 16 16 16 15 15 16 17 17 18 18 19 20 21 22 22 21 21 22 21 21 20 20 20 19 19 19 17 17 16 14
12 12 13 14 13 14 13 15 16 16 17 17 17 17 16 16 15 15 15 16 17 18 19 19 20 21 21 21 21 21 21 23 24 20 21 21 20 20 20 20 17 15 14
14 14 13 13 14 13 13 15 15 16 17 17 17 17 17 16 16 16 15 15 16 15 16 18 20 20 21 21 20 21 21 21 21 20 21 23 21 22 20 19 17 15 14
15 15 14 14 14 14 13 15 15 16 17 17 17 17 18 19 18 20 20 20 21 20 19 19 19 20 20 19 19 19 20 21 23 22 21 27 24 24 22 21 18 16 16
15 15 14 15 14 14 14 14 16 17 18 18 19 18 18 19 17 18 20 20 20 20 17 17 16 16 15 15 17 21 26 27 29 24 22 23 24 25 25 25 22 18 16
17 17 17 16 16 16 15 15 17 18 19 19 19 19 18 18 17 17 20 21 22 21 19 19 18 17 17 17 17 21 22 29 31 31 25 27 29 28 30 27 25 22 21